Showing default

ICEYE-X75, 68497

Orbit data source: Space-Track

ICEYE-X75, 68497 is a payload satellite owned by ICEYE (PL) in SSO that was launched on Mon, 30 Mar 2026 UTC via an FALCON 9 launch vehicle from the Air Force Western Test Range (AFWTR). Payload-class satellites include a variety of spacecraft equipped with specific instruments for various scientific and technological missions. These include communications satellites like Starlink; space stations such as the ISS; scientific satellites like the Hubble; Earth observation satellites from companies like Planet Labs, Umbra, and HawkEye 360; GPS; miniature CubeSats for education and research; and military/defense satellites.

Loading next visibility...
Identifier
68497, 2026-067CK
Orbit
SSO
Country
Flag of PLPL / POL
Related business
Manufacturer
ICEYE
Mission
Operational Commercial Radar Imaging
Bus & Motor
ICEYE, Unknown motor
Mass
120 kg wet, 120 kg dry
Launch date (UTC)
2026-03-30 (6 months ago)
Launch vehicle
FALCON 9
Launch site
Air Force Western Test Range (AFWTR)
Object type
Payload
Rocket body
Debris
Shape & HBR
Box + 1 Pan, 2.4 m
Radar Cross Section
0.776 m², Medium (>0.1 m² and < 1m²)

Expand to show TLE details & history
Last TLE update: 14 hours ago

TLE from 14 hours ago
0 ICEYE-X75
1 68497U 26067CK  26263.45561539  .00000539  00000-0  58318-4 0  9998
2 68497  97.7700 220.3630 0002095  39.7625 320.3747 14.92287496 25937
Epoch: 2026-09-20T10:56Z
TLE epoch observation values (Epoch: 2026-09-20T10:56:05.169Z)
Latitude
-0.00006°
Longitude
56.99192°
Altitude
592.722 km
Speed
7.564 km/s
True Right ascension
14h 41m 27s
True Declination
0° 00' 00"
Sunlit
Object was in daylight at epoch
Visualization orbit readout
Latitude
Unknown
Longitude
Unknown
Altitude
Unknown
Speed
Unknown
Apparent Right ascension
Unknown
Apparent Declination
Unknown
Sunlit
N/A
Visualization observer readout
Local Sidereal Time
18:04:24
Azimuth
Unknown
Elevation
Unknown
Doppler factor
Unknown
Orbital elements
Apogee altitude
589.283 km
Perigee altitude
586.364 km
Semi-major axis
6,965.961 km
Eccentricity
0.00021
Inclination
97.77°
RAAN
220.363°
Arg. of periapsis
39.7625°
True anomaly
320.35939°
Mean anomaly
320.3747°
Eccentric anomaly
320.36704°
Mean motion
3.73312 °/min
Orbital period
96.43 mins
BSTAR
0.000058318
Loading maneuver chart data...
Computing Atmospheric mass density...
Loading historical data...
Loading historical data...
Loading historical data...
Loading historical data...
Loading historical data...
Loading historical data...
Loading historical data...

Documentation

Showing up to 5 results
|